DW2248 Weather Reports


Display with metric or nautical units.
time (UTC)temp
F
wind
direction
speed
MPH
gust
MPH
rain 1hr
in
rain 24hr
in
rain mn
in
humidity
%
barometer
mb
20191022190753 50 84 0.0 0.0 0.00 0.00 0.00 93 1023.8
20191022185252 51 84 0.0 0.0 0.00 0.00 0.00 93 1023.8
20191022182252 51 84 0.0 0.0 0.00 0.00 0.00 90 1024.1
20191022175253 52 84 0.0 0.0 0.00 0.00 0.00 89 1024.3
20191022172252 53 84 0.0 0.0 0.00 0.00 0.00 86 1023.9
20191022163753 55 84 0.0 0.0 0.00 0.00 0.00 84 1023.9
20191022160752 56 84 0.0 0.0 0.00 0.00 0.00 83 1023.8
20191022155252 57 84 0.0 0.0 0.00 0.00 0.00 82 1023.8
20191022153752 57 84 0.0 1.0 0.00 0.00 0.00 82 1023.8
20191022152252 57 84 0.0 0.0 0.00 0.00 0.00 82 1023.8
20191022150752 57 84 0.0 0.0 0.00 0.00 0.00 82 1024.3
20191022143752 57 84 0.0 0.0 0.00 0.00 0.00 81 1024.1
20191022142252 57 84 0.0 0.0 0.00 0.00 0.00 81 1023.9
20191022140752 57 84 0.0 0.0 0.00 0.00 0.00 81 1024.1
20191022133752 58 84 0.0 3.0 0.00 0.00 0.00 80 1024.2
20191022132252 58 84 0.0 3.0 0.00 0.00 0.00 80 1024.1
20191022123752 58 84 4.0 6.0 0.00 0.00 0.00 80 1024.4
20191022120752 57 84 1.0 4.0 0.00 0.00 0.00 82 1024.7
20191022115252 56 84 1.0 4.0 0.00 0.00 0.00 82 1024.7
20191022112252 56 84 2.0 6.0 0.00 0.00 0.00 83 1025.0
20191022110752 55 84 3.0 4.0 0.00 0.00 0.00 82 1025.1
20191022105252 55 84 1.0 3.0 0.00 0.00 0.00 83 1025.3
20191022103752 55 84 2.0 7.0 0.00 0.00 0.00 83 1025.4
20191022100752 54 84 1.0 4.0 0.00 0.00 0.00 83 1025.3
20191022093752 54 84 1.0 3.0 0.00 0.00 0.00 84 1025.2
20191022092251 54 84 0.0 1.0 0.00 0.00 0.00 84 1025.0
20191022090752 53 84 1.0 4.0 0.00 0.00 0.00 84 1025.0
20191022085253 53 84 1.0 6.0 0.00 0.00 0.00 84 1024.9
20191022083752 53 84 2.0 4.0 0.00 0.00 0.00 84 1024.6
20191022082252 53 84 3.0 7.0 0.00 0.00 0.00 83 1024.4
20191022080751 53 84 2.0 6.0 0.00 0.00 0.00 84 1024.4
20191022073751 53 84 1.0 3.0 0.00 0.00 0.00 84 1024.2
20191022062251 53 84 2.0 6.0 0.00 0.00 0.00 83 1023.5
20191022055251 53 84 3.0 8.0 0.00 0.00 0.00 83 1022.7
20191022052251 53 84 1.0 4.0 0.00 0.00 0.00 85 1022.7
20191022050751 53 84 0.0 3.0 0.00 0.00 0.00 85 1022.5
20191022043751 53 84 0.0 1.0 0.00 0.00 0.00 85 1022.0
20191022042251 53 84 0.0 3.0 0.00 0.00 0.00 84 1022.2
20191022035251 53 84 1.0 4.0 0.00 0.00 0.00 83 1022.3
20191022030751 52 84 1.0 4.0 0.00 0.00 0.00 84 1022.5
20191022025251 52 84 3.0 4.0 0.00 0.00 0.00 85 1022.3
20191022023751 52 84 1.0 3.0 0.00 0.00 0.00 85 1022.3
20191022022251 52 84 1.0 3.0 0.00 0.00 0.00 84 1022.2
20191022020751 52 84 0.0 3.0 0.00 0.00 0.00 84 1022.3
20191022012251 51 84 1.0 4.0 0.00 0.00 0.00 85 1022.4
20191022010751 51 84 2.0 7.0 0.00 0.00 0.00 85 1022.4
20191022002251 52 84 1.0 4.0 0.00 0.00 0.00 83 1022.4
20191021235251 53 84 1.0 3.0 0.00 0.00 0.00 82 1022.2
20191021233750 53 84 2.0 6.0 0.00 0.00 0.00 81 1022.0
20191021232250 54 84 2.0 6.0 0.00 0.00 0.00 80 1021.9
20191021225251 55 84 3.0 7.0 0.00 0.00 0.00 78 1021.9
20191021215250 55 84 5.0 12.0 0.00 0.00 0.00 74 1021.6
20191021213750 56 84 4.0 8.0 0.00 0.00 0.00 74 1021.4
20191021212250 55 84 5.0 11.0 0.00 0.00 0.00 74 1021.2
20191021202250 56 84 2.0 6.0 0.00 0.00 0.00 74 1021.3
20191021195250 56 84 3.0 8.0 0.00 0.00 0.00 73 1021.2
20191021193750 56 84 2.0 7.0 0.00 0.00 0.00 73 1021.0